YBRMYPPD

Guest
Details From YBRM - Broome Intl
To YPPD - Port Hedland Intl
Flight Number -
Tags generated
Created
Modified
Stats Distance 252 nm / 468 km
Max Altitude 26,000 ft / 7,925 m
Waypoints 5
Social Downloads 0
Likes 0
Share VATSIM

Download

Looking for another format? Having issues loading an existing format? Contact us
Advertisement - Login to hide

Notes

Basic altitude profile: - Ascent Rate: 2500ft/min - Ascent Speed: 250kts - Cruise Altitude: 35000ft - Cruise Speed: 420kts - Descent Rate: 1500ft/min - Descent Speed: 250kts Options: - Use NATs: yes - Use PACOTS: yes - Use low airways: yes - Use high airways: yes

Route

YBRM BRM J93 PD YPPD

ID Type Via Altitude (ft/m) Position (lat/lon) Dist (leg/tot) Name
O YBRM APT - 0 / 0 -17.94875 / 122.22723 - / 0 nm Broome Intl
BRM NDB - 100 / 30 -17.94639 / 122.23528 0 / 0 nm BROOME NDB-DME
SNAPA FIX J93 (AWY-LO) 26,000 / 7,925 -19.16667 / 120.44333 125 / 126 nm
PD VOR J93 (AWY-LO) 18,000 / 5,486 -20.37833 / 118.62278 126 / 252 nm PORT HEDLAND VOR-DME
O YPPD APT - 0 / 0 -20.37855 / 118.62943 0 / 252 nm Port Hedland Intl

Altitude Profile

Advertisement - Login to hide

Weather


0- 5 10 15 20 25 30 35+ Temperature / °C

Clouds and Precipitation
Forecast for 2018-11-19 06:00 UTC. Updated 3 hours ago

Ground ~20,000 ft ~40,000 ft Winds

YBRM

Details ICAO YBRM (BME)
Name Broome Intl
Region Australia
Timezone Australia/Perth (UTC+8.0)
Stats Elevation 56 ft / 17 m (AMSL)
Location -17.948700° 122.227000°
Runways 1
Magnetic Variation 1.729° E

METAR

YBRM 190700Z 32018KT 9999 FEW021 31/25 Q1005

Decode

TAF

TAF YBRM 190523Z 1906/2006 32016KT 9999 FEW020 FM191400 33010KT 9999 SCT013 FM191800 33008KT 9999 BKN015 FM192300 32014KT CAVOK

Decode

Departure Runways

ID Width Length Bearing (true/mag) Surface Threshold Overrun Markings Lighting
10 148 ft / 45 m 8,325 ft / 2,537 m 105.60° / 103.88° ASPHALT 292 ft / 89 m 52 ft / 16 m APP EDGE THRESHOLD
28 148 ft / 45 m 8,325 ft / 2,537 m 285.60° / 283.87° ASPHALT 666 ft / 203 m 0 ft / 0 m APP EDGE THRESHOLD

YPPD

Details ICAO YPPD (PHE)
Name Port Hedland Intl
Region Australia
Timezone Australia/Perth (UTC+8.0)
Stats Elevation 33 ft / 10 m (AMSL)
Location -20.378600° 118.629000°
Runways 2
Magnetic Variation 1.215° E

METAR

YPPD 190700Z AUTO 30017KT 9999 // BKN071 40/11 Q1004

Decode

TAF

TAF YPPD 190507Z 1906/2006 30018KT CAVOK BECMG 1912/1914 26012KT CAVOK FM200400 30018KT CAVOK

Decode

Destination Runways

ID Width Length Bearing (true/mag) Surface Threshold Overrun Markings Lighting
14 148 ft / 45 m 8,216 ft / 2,504 m 137.60° / 136.39° ASPHALT 0 ft / 0 m 0 ft / 0 m APP EDGE THRESHOLD
18 59 ft / 18 m 3,292 ft / 1,003 m 2.40° / 1.19° ASPHALT 0 ft / 0 m 0 ft / 0 m VISUAL EDGE THRESHOLD
32 148 ft / 45 m 8,216 ft / 2,504 m 317.60° / 316.38° ASPHALT 0 ft / 0 m 0 ft / 0 m APP EDGE THRESHOLD
36 59 ft / 18 m 3,292 ft / 1,003 m 182.40° / 181.19° ASPHALT 0 ft / 0 m 0 ft / 0 m VISUAL EDGE THRESHOLD

Popular Alternatives